Radiation Dose at Monitoring Post of Fukushima Daini Nuclear Power Station
Date,Time,MP-1(microSv/h),MP-2(microSv/h),MP-3(microSv/h),MP-4(microSv/h),MP-5(microSv/h),MP-6(microSv/h),MP-7(microSv/h),Wind Direction,Wind Velocity(m/s),Rain
2020/07/06,00:00,0.166,0.152,0.245,0.234,0.239,0.130,0.080,north-northwest,4.8,No
2020/07/06,00:10,0.165,0.152,0.244,0.235,0.241,0.130,0.080,north-northwest,4.5,No
2020/07/06,00:20,0.167,0.152,0.244,0.233,0.240,0.130,0.080,north-northwest,4.0,No
2020/07/06,00:30,0.165,0.151,0.245,0.236,0.239,0.130,0.080,north-northwest,4.8,No
2020/07/06,00:40,0.167,0.151,0.243,0.234,0.242,0.131,0.081,north-northwest,4.3,No
2020/07/06,00:50,0.165,0.152,0.245,0.234,0.238,0.131,0.080,north-northwest,3.4,No
2020/07/06,01:00,0.166,0.152,0.243,0.236,0.242,0.129,0.081,north,3.3,No
2020/07/06,01:10,0.166,0.152,0.245,0.233,0.240,0.131,0.081,north,2.1,No
2020/07/06,01:20,0.166,0.151,0.244,0.236,0.241,0.130,0.080,-,CALM,No
2020/07/06,01:30,0.168,0.153,0.246,0.233,0.240,0.130,0.080,-,CALM,No
2020/07/06,01:40,0.166,0.151,0.244,0.235,0.240,0.131,0.080,south,0.6,No
2020/07/06,01:50,0.166,0.153,0.245,0.234,0.241,0.130,0.081,-,CALM,No
2020/07/06,02:00,0.166,0.152,0.244,0.236,0.239,0.132,0.080,-,CALM,No
2020/07/06,02:10,0.166,0.153,0.245,0.234,0.243,0.130,0.082,-,CALM,No
2020/07/06,02:20,0.166,0.152,0.245,0.236,0.240,0.131,0.080,-,CALM,No
2020/07/06,02:30,0.166,0.153,0.245,0.236,0.242,0.131,0.081,-,CALM,No
2020/07/06,02:40,0.167,0.152,0.246,0.235,0.240,0.131,0.080,south,0.8,No
2020/07/06,02:50,0.165,0.153,0.244,0.236,0.240,0.131,0.080,south,2.0,No
2020/07/06,03:00,0.168,0.152,0.246,0.234,0.242,0.129,0.081,south,1.8,No
2020/07/06,03:10,0.166,0.152,0.244,0.236,0.239,0.131,0.080,south-southwest,1.5,No
2020/07/06,03:20,0.166,0.153,0.245,0.234,0.242,0.130,0.081,south-southwest,1.3,No
2020/07/06,03:30,0.166,0.151,0.244,0.236,0.239,0.131,0.080,south,1.0,No
2020/07/06,03:40,0.166,0.153,0.244,0.234,0.241,0.131,0.080,south-southeast,1.2,No
2020/07/06,03:50,0.167,0.152,0.244,0.236,0.240,0.129,0.081,south-southeast,1.1,No
2020/07/06,04:00,0.165,0.152,0.243,0.234,0.240,0.131,0.080,south-southeast,1.8,No
2020/07/06,04:10,0.167,0.152,0.245,0.234,0.241,0.130,0.080,south-southeast,2.2,No
2020/07/06,04:20,0.165,0.152,0.243,0.235,0.238,0.130,0.080,south-southeast,2.2,No
2020/07/06,04:30,0.166,0.151,0.246,0.233,0.241,0.130,0.080,south-southeast,0.7,No
2020/07/06,04:40,0.166,0.151,0.244,0.235,0.240,0.129,0.080,south-southeast,1.2,No
2020/07/06,04:50,0.165,0.152,0.242,0.234,0.240,0.130,0.080,south,0.9,No
2020/07/06,05:00,0.167,0.151,0.244,0.236,0.240,0.129,0.079,east-southeast,0.9,No
2020/07/06,05:10,0.164,0.151,0.243,0.233,0.238,0.130,0.080,south-southeast,1.6,No
2020/07/06,05:20,0.167,0.151,0.244,0.234,0.241,0.131,0.080,south,1.4,No
2020/07/06,05:30,0.165,0.152,0.242,0.234,0.238,0.130,0.080,south,1.2,No
2020/07/06,05:40,0.166,0.151,0.245,0.233,0.240,0.131,0.080,south,1.8,No
2020/07/06,05:50,0.165,0.152,0.243,0.235,0.240,0.129,0.080,south-southeast,2.4,No
2020/07/06,06:00,0.165,0.152,0.242,0.233,0.238,0.130,0.080,south,2.7,No
2020/07/06,06:10,0.167,0.151,0.245,0.234,0.242,0.130,0.080,south,2.8,No
2020/07/06,06:20,0.165,0.152,0.243,0.234,0.239,0.129,0.081,south,3.7,No
2020/07/06,06:30,0.166,0.151,0.246,0.234,0.240,0.131,0.080,south,2.4,No
2020/07/06,06:40,0.167,0.153,0.243,0.237,0.241,0.130,0.081,south-southwest,2.9,No
2020/07/06,06:50,0.165,0.152,0.245,0.232,0.238,0.130,0.081,south-southwest,3.3,Yes
2020/07/06,07:00,0.167,0.153,0.246,0.237,0.242,0.132,0.081,south-southwest,2.9,Yes
2020/07/06,07:10,0.166,0.153,0.244,0.235,0.241,0.131,0.082,south-southwest,2.6,No
2020/07/06,07:20,0.167,0.152,0.247,0.234,0.240,0.130,0.081,south-southwest,2.3,No
2020/07/06,07:30,0.169,0.153,0.243,0.236,0.243,0.132,0.080,south-southwest,2.5,Yes
2020/07/06,07:40,0.167,0.153,0.245,0.235,0.241,0.132,0.082,south-southwest,2.4,Yes
2020/07/06,07:50,0.168,0.154,0.246,0.237,0.241,0.132,0.082,south,3.0,Yes
2020/07/06,08:00,0.168,0.155,0.245,0.238,0.243,0.134,0.083,south,2.8,Yes
2020/07/06,08:10,0.168,0.154,0.248,0.237,0.241,0.133,0.084,south,2.8,Yes
2020/07/06,08:20,0.170,0.156,0.245,0.239,0.243,0.135,0.084,south,2.8,Yes
2020/07/06,08:30,0.169,0.155,0.246,0.235,0.243,0.134,0.084,south,3.4,Yes
2020/07/06,08:40,0.170,0.155,0.248,0.237,0.241,0.133,0.083,south,4.4,Yes
2020/07/06,08:50,0.170,0.155,0.245,0.237,0.244,0.134,0.083,south,4.5,Yes
2020/07/06,09:00,0.168,0.154,0.246,0.235,0.241,0.133,0.084,south,5.3,No
2020/07/06,09:10,0.168,0.155,0.246,0.237,0.241,0.132,0.083,south,5.7,Yes
2020/07/06,09:20,0.168,0.154,0.244,0.236,0.244,0.133,0.083,south-southeast,6.5,Yes
2020/07/06,09:30,0.168,0.154,0.247,0.236,0.243,0.132,0.083,south,8.1,Yes
2020/07/06,09:40,0.170,0.154,0.244,0.237,0.240,0.132,0.083,south,9.3,Yes
2020/07/06,09:50,0.167,0.154,0.246,0.235,0.244,0.132,0.083,south,9.6,Yes
2020/07/06,10:00,0.168,0.154,0.245,0.237,0.240,0.133,0.083,south,8.5,Yes
2020/07/06,10:10,0.169,0.154,0.243,0.236,0.243,0.133,0.084,south,7.2,Yes
2020/07/06,10:20,0.167,0.154,0.247,0.234,0.244,0.133,0.083,south,5.0,Yes
2020/07/06,10:30,0.169,0.154,0.247,0.236,0.239,0.133,0.082,south,6.9,No
2020/07/06,10:40,0.169,0.154,0.244,0.235,0.239,0.131,0.082,south-southwest,5.5,No
2020/07/06,10:50,0.167,0.152,0.243,0.232,0.242,0.132,0.083,south,2.7,No
2020/07/06,11:00,0.165,0.153,0.246,0.235,0.241,0.132,0.082,south,4.8,No
2020/07/06,11:10,0.168,0.154,0.244,0.236,0.240,0.130,0.081,south-southwest,4.0,No
2020/07/06,11:20,0.167,0.153,0.242,0.234,0.239,0.131,0.080,-,CALM,No
2020/07/06,11:30,0.166,0.152,0.243,0.233,0.239,0.131,0.081,southwest,1.2,Yes
2020/07/06,11:40,0.169,0.154,0.246,0.236,0.242,0.133,0.083,-,CALM,Yes
2020/07/06,11:50,0.169,0.155,0.244,0.235,0.241,0.132,0.083,-,CALM,Yes
2020/07/06,12:00,0.168,0.155,0.245,0.235,0.241,0.134,0.084,northeast,0.9,Yes
2020/07/06,12:10,0.170,0.157,0.248,0.237,0.245,0.136,0.085,northeast,2.0,Yes
2020/07/06,12:20,0.171,0.157,0.244,0.235,0.244,0.135,0.086,north,1.5,Yes
2020/07/06,12:30,0.169,0.157,0.246,0.236,0.243,0.135,0.085,north,1.0,Yes
2020/07/06,12:40,0.170,0.157,0.246,0.239,0.245,0.135,0.085,west-northwest,1.1,Yes
2020/07/06,12:50,0.170,0.156,0.244,0.235,0.243,0.134,0.085,west,1.3,Yes
2020/07/06,13:00,0.168,0.156,0.246,0.236,0.240,0.133,0.085,south-southwest,1.5,No
2020/07/06,13:10,0.169,0.154,0.244,0.236,0.243,0.134,0.083,south-southeast,2.7,No
2020/07/06,13:20,0.167,0.153,0.241,0.233,0.243,0.131,0.082,south-southeast,5.5,No
2020/07/06,13:30,0.165,0.151,0.240,0.231,0.238,0.131,0.081,south,5.9,No
2020/07/06,13:40,0.165,0.153,0.241,0.230,0.237,0.130,0.080,south,6.6,No
2020/07/06,13:50,0.166,0.153,0.243,0.232,0.237,0.130,0.081,south,7.2,Yes
2020/07/06,14:00,0.165,0.151,0.242,0.234,0.237,0.131,0.081,south,5.9,Yes
2020/07/06,14:10,0.165,0.152,0.241,0.232,0.238,0.130,0.080,south,5.1,Yes
2020/07/06,14:20,0.167,0.153,0.241,0.231,0.240,0.130,0.081,south,6.0,Yes
2020/07/06,14:30,0.167,0.151,0.243,0.233,0.238,0.131,0.081,south,7.5,Yes
2020/07/06,14:40,0.165,0.151,0.240,0.233,0.239,0.131,0.081,south,5.9,Yes
2020/07/06,14:50,0.167,0.153,0.242,0.232,0.241,0.129,0.081,south,5.7,Yes
2020/07/06,15:00,0.166,0.151,0.242,0.233,0.238,0.130,0.082,south-southeast,5.1,Yes
2020/07/06,15:10,0.164,0.152,0.240,0.233,0.239,0.131,0.080,south,7.2,Yes
2020/07/06,15:20,0.166,0.152,0.240,0.231,0.240,0.131,0.080,south,8.6,Yes
2020/07/06,15:30,0.165,0.150,0.242,0.234,0.239,0.130,0.081,south-southeast,8.4,Yes
2020/07/06,15:40,0.164,0.152,0.241,0.232,0.238,0.131,0.081,south,9.2,Yes
2020/07/06,15:50,0.166,0.152,0.241,0.230,0.241,0.130,0.081,south,7.8,Yes
2020/07/06,16:00,0.164,0.150,0.241,0.232,0.238,0.130,0.081,south,8.5,Yes
2020/07/06,16:10,0.165,0.151,0.239,0.229,0.237,0.129,0.081,south,8.7,Yes
2020/07/06,16:20,0.165,0.151,0.241,0.230,0.240,0.128,0.081,south,7.8,Yes
2020/07/06,16:30,0.163,0.151,0.240,0.233,0.237,0.130,0.080,south,7.1,Yes
2020/07/06,16:40,0.165,0.151,0.238,0.230,0.239,0.130,0.081,south,7.2,Yes
2020/07/06,16:50,0.165,0.150,0.241,0.230,0.240,0.129,0.081,south,7.3,Yes
2020/07/06,17:00,0.163,0.152,0.241,0.233,0.238,0.131,0.080,south,6.8,Yes
2020/07/06,17:10,0.165,0.151,0.238,0.230,0.238,0.130,0.081,south,7.2,Yes
2020/07/06,17:20,0.164,0.150,0.241,0.229,0.240,0.129,0.081,south,8.1,Yes
2020/07/06,17:30,0.164,0.152,0.238,0.232,0.237,0.130,0.081,south,7.9,Yes
2020/07/06,17:40,0.165,0.151,0.238,0.230,0.238,0.129,0.081,south,7.5,Yes
2020/07/06,17:50,0.163,0.151,0.241,0.230,0.240,0.129,0.080,south,7.6,Yes
2020/07/06,18:00,0.163,0.152,0.240,0.232,0.238,0.130,0.081,south,7.3,Yes
2020/07/06,18:10,0.164,0.151,0.239,0.229,0.238,0.130,0.080,south,7.4,Yes
2020/07/06,18:20,0.163,0.150,0.241,0.231,0.239,0.128,0.080,south,6.8,Yes
2020/07/06,18:30,0.164,0.152,0.238,0.230,0.237,0.130,0.081,south,6.8,Yes
2020/07/06,18:40,0.165,0.150,0.239,0.229,0.240,0.129,0.080,south,6.4,Yes
2020/07/06,18:50,0.163,0.152,0.241,0.231,0.238,0.129,0.081,south,6.5,Yes
2020/07/06,19:00,0.164,0.151,0.237,0.230,0.237,0.129,0.081,south,7.0,Yes
2020/07/06,19:10,0.163,0.149,0.240,0.229,0.238,0.129,0.080,south,7.8,Yes
2020/07/06,19:20,0.162,0.151,0.239,0.232,0.239,0.128,0.081,south,7.4,Yes
2020/07/06,19:30,0.164,0.150,0.238,0.229,0.236,0.130,0.080,south,8.2,Yes
2020/07/06,19:40,0.163,0.150,0.240,0.229,0.240,0.129,0.080,south,8.3,Yes
2020/07/06,19:50,0.163,0.151,0.239,0.229,0.239,0.130,0.081,south,7.4,Yes
2020/07/06,20:00,0.165,0.150,0.240,0.230,0.237,0.130,0.080,south,7.8,Yes
2020/07/06,20:10,0.163,0.152,0.241,0.231,0.240,0.129,0.081,south-southwest,6.8,Yes
2020/07/06,20:20,0.165,0.151,0.239,0.231,0.239,0.131,0.082,south-southwest,5.8,Yes
2020/07/06,20:30,0.166,0.151,0.241,0.230,0.238,0.131,0.082,south,7.3,Yes
2020/07/06,20:40,0.165,0.154,0.243,0.235,0.243,0.132,0.083,south-southwest,9.8,Yes
2020/07/06,20:50,0.167,0.153,0.241,0.232,0.239,0.133,0.083,south,9.6,Yes
2020/07/06,21:00,0.166,0.155,0.245,0.235,0.242,0.134,0.084,south-southwest,13.1,Yes
2020/07/06,21:10,0.166,0.153,0.243,0.235,0.242,0.133,0.084,south-southwest,12.0,Yes
2020/07/06,21:20,0.167,0.153,0.244,0.232,0.240,0.134,0.084,south,12.0,Yes
2020/07/06,21:30,0.166,0.154,0.244,0.235,0.242,0.133,0.084,south,12.3,Yes
2020/07/06,21:40,0.168,0.154,0.243,0.234,0.242,0.134,0.085,south,12.3,Yes
2020/07/06,21:50,0.168,0.154,0.246,0.234,0.240,0.134,0.084,south,10.9,Yes
2020/07/06,22:00,0.166,0.155,0.243,0.235,0.243,0.134,0.085,south,10.1,Yes
2020/07/06,22:10,0.169,0.153,0.245,0.233,0.242,0.134,0.085,south,10.1,Yes
2020/07/06,22:20,0.168,0.155,0.246,0.236,0.242,0.136,0.086,south,9.2,Yes
2020/07/06,22:30,0.166,0.153,0.243,0.234,0.243,0.134,0.085,south,9.6,Yes
2020/07/06,22:40,0.167,0.154,0.244,0.233,0.240,0.133,0.084,south,9.0,Yes
2020/07/06,22:50,0.165,0.154,0.243,0.235,0.241,0.133,0.084,south,9.5,Yes
2020/07/06,23:00,0.165,0.153,0.240,0.232,0.241,0.132,0.083,south,8.7,Yes
2020/07/06,23:10,0.166,0.153,0.243,0.233,0.238,0.131,0.082,south,8.2,No
2020/07/06,23:20,0.163,0.151,0.241,0.234,0.241,0.132,0.083,south,8.1,No
2020/07/06,23:30,0.165,0.152,0.241,0.231,0.239,0.131,0.082,south,7.5,No
2020/07/06,23:40,0.164,0.152,0.242,0.233,0.238,0.130,0.080,south,7.2,No
2020/07/06,23:50,0.163,0.150,0.239,0.231,0.240,0.131,0.081,south,7.2,No
